FW5442 Weather Reports


time (UTC)temp
F
wind
direction
speed
knots
gust
knots
rain 1hr
in
rain 24hr
in
rain mn
in
humidity
%
barometer
mb
20260904182054 98 349 3.5 5.2 0.00 0.00 0.00 43 1014.1
20260904181601 99 330 1.7 3.5 0.00 0.00 0.00 43 1014.1
20260904181055 99 249 0.0 5.2 0.00 0.00 0.00 40 1014.3
20260904180555 98 52 0.9 6.1 0.00 0.00 0.00 42 1014.2
20260904180114 98 188 3.5 8.7 0.00 0.00 0.00 42 1014.2
20260904175554 98 150 2.6 8.7 0.00 0.00 0.00 44 1014.3
20260904175056 98 156 5.2 8.7 0.00 0.00 0.00 44 1014.4
20260904174621 97 181 5.2 7.0 0.00 0.00 0.00 45 1014.5
20260904174055 97 162 0.9 7.0 0.00 0.00 0.00 45 1014.6
20260904173554 96 134 4.3 8.7 0.00 0.00 0.00 47 1014.7
20260904173056 96 113 4.3 8.7 0.00 0.00 0.00 46 1014.8
20260904172553 98 115 4.3 7.0 0.00 0.00 0.00 45 1015.0
20260904172053 97 106 2.6 5.2 0.00 0.00 0.00 46 1014.8
20260904171604 97 0 1.7 6.1 0.00 0.00 0.00 46 1015.1
20260904171056 96 169 2.6 6.1 0.00 0.00 0.00 45 1015.2
20260904170553 97 94 0.9 5.2 0.00 0.00 0.00 46 1015.3
20260904170100 96 133 1.7 5.2 0.00 0.00 0.00 46 1015.3
20260904165557 96 43 2.6 5.2 0.00 0.00 0.00 47 1015.3
20260904165057 95 96 0.9 6.1 0.00 0.00 0.00 49 1015.4
20260904164606 94 312 0.9 6.1 0.00 0.00 0.00 49 1015.5
20260904164053 94 301 2.6 6.1 0.00 0.00 0.00 49 1015.4
20260904163553 94 59 2.6 6.1 0.00 0.00 0.00 49 1015.4
20260904163106 94 120 1.7 4.3 0.00 0.00 0.00 49 1015.5
20260904162556 94 139 1.7 4.3 0.00 0.00 0.00 51 1015.5
20260904162056 94 136 2.6 3.5 0.00 0.00 0.00 51 1015.5
20260904161609 94 126 0.0 3.5 0.00 0.00 0.00 52 1015.5
20260904161055 93 0 0.0 3.5 0.00 0.00 0.00 53 1015.6
20260904160557 92 108 1.7 3.5 0.00 0.00 0.00 53 1015.5
20260904160110 92 88 0.9 3.5 0.00 0.00 0.00 53 1015.5
20260904155556 92 295 0.9 4.3 0.00 0.00 0.00 54 1015.4
20260904155056 92 0 0.9 4.3 0.00 0.00 0.00 54 1015.4
20260904154559 92 359 0.0 2.6 0.00 0.00 0.00 55 1015.6
20260904154053 91 0 0.9 4.3 0.00 0.00 0.00 56 1015.4
20260904153557 90 356 0.9 4.3 0.00 0.00 0.00 57 1015.4
20260904153129 90 302 0.0 2.6 0.00 0.00 0.00 57 1015.4
20260904152554 88 8 0.0 2.6 0.00 0.00 0.00 60 1015.5
20260904152057 87 15 0.9 3.5 0.00 0.00 0.00 60 1015.4
20260904151606 87 340 1.7 3.5 0.00 0.00 0.00 62 1015.5
20260904151056 86 297 1.7 3.5 0.00 0.00 0.00 63 1015.2
20260904150553 86 287 1.7 3.5 0.00 0.00 0.00 63 1015.2
20260904150100 86 334 1.7 3.5 0.00 0.00 0.00 63 1015.4
20260904145556 86 302 0.9 3.5 0.00 0.00 0.00 66 1015.3
20260904145052 85 276 2.6 3.5 0.00 0.00 0.00 65 1015.1
20260904144603 85 291 1.7 3.5 0.00 0.00 0.00 66 1015.1
20260904144055 85 13 1.7 3.5 0.00 0.00 0.00 68 1014.9
20260904143553 84 320 1.7 2.6 0.00 0.00 0.00 70 1015.0
20260904143103 84 284 0.0 1.7 0.00 0.00 0.00 71 1015.0
20260904142638 83 0 0.0 3.5 0.00 0.00 0.00 72 1015.1
20260904142053 83 294 0.0 3.5 0.00 0.00 0.00 72 1015.0
20260904141558 83 0 0.0 0.0 0.00 0.00 0.00 75 1015.0
20260904141054 82 0 0.0 0.0 0.00 0.00 0.00 76 1015.1
20260904140554 82 0 0.0 0.0 0.00 0.00 0.00 78 1015.2
20260904140105 81 0 0.0 0.0 0.00 0.00 0.00 78 1015.2
20260904135555 81 0 0.0 0.0 0.00 0.00 0.00 79 1015.1
20260904135052 80 0 0.0 0.0 0.00 0.00 0.00 80 1015.1
20260904134609 80 0 0.0 0.9 0.00 0.00 0.00 81 1015.0
20260904134057 80 0 0.0 0.9 0.00 0.00 0.00 81 1015.1
20260904133554 79 0 0.0 0.9 0.00 0.00 0.00 81 1015.1
20260904133108 79 0 0.0 0.0 0.00 0.00 0.00 81 1014.9
20260904132553 79 0 0.0 0.0 0.00 0.00 0.00 83 1014.9
20260904132057 78 0 0.0 0.0 0.00 0.00 0.00 83 1014.9
20260904131601 78 0 0.0 0.0 0.00 0.00 0.00 84 1014.9
20260904131056 77 0 0.0 1.7 0.00 0.00 0.00 84 1015.1
20260904130553 77 0 0.0 1.7 0.00 0.00 0.00 85 1015.0
20260904130114 76 0 0.0 2.6 0.00 0.00 0.00 86 1015.0
20260904125553 76 352 1.7 2.6 0.00 0.00 0.00 86 1015.0
20260904125056 76 359 2.6 2.6 0.00 0.00 0.00 86 1015.0
20260904124606 76 352 1.7 2.6 0.00 0.00 0.00 86 1014.7
20260904124052 76 349 0.9 1.7 0.00 0.00 0.00 86 1014.9
20260904123555 76 357 0.9 1.7 0.00 0.00 0.00 87 1014.9
20260904123102 75 360 0.9 1.7 0.00 0.00 0.00 87 1014.8
20260904122553 75 354 1.7 1.7 0.00 0.00 0.00 88 1014.8
20260904122056 75 354 0.9 1.7 0.00 0.00 0.00 88 1014.8
20260904121601 75 355 0.9 0.9 0.00 0.00 0.00 88 1014.5
20260904121056 75 0 0.0 0.0 0.00 0.00 0.00 88 1014.6
20260904120556 75 0 0.0 0.0 0.00 0.00 0.00 88 1014.7
20260904120108 75 0 0.0 0.0 0.00 0.00 0.00 88 1014.6
20260904115553 75 0 0.0 0.0 0.00 0.00 0.00 88 1014.7
20260904115056 75 0 0.0 0.0 0.00 0.00 0.00 88 1014.6
20260904114611 75 0 0.0 0.0 0.00 0.00 0.00 87 1014.6
20260904114056 75 0 0.0 0.0 0.00 0.00 0.00 86 1014.5
20260904113556 75 0 0.0 0.0 0.00 0.00 0.00 87 1014.3
20260904113106 75 0 0.0 0.0 0.00 0.00 0.00 87 1014.5
20260904112556 75 0 0.0 0.0 0.00 0.00 0.00 87 1014.5
20260904112057 75 0 0.0 0.0 0.00 0.00 0.00 87 1014.6
20260904111558 75 0 0.0 0.0 0.00 0.00 0.00 87 1014.5
20260904111057 75 0 0.0 0.0 0.00 0.00 0.00 87 1014.5
20260904110557 75 0 0.0 0.0 0.00 0.00 0.00 88 1014.4
20260904110057 75 0 0.0 0.0 0.00 0.00 0.00 87 1014.5
20260904105553 75 0 0.0 0.0 0.00 0.00 0.00 87 1014.4
20260904105053 75 0 0.0 0.0 0.00 0.00 0.00 87 1014.3
20260904104559 75 0 0.0 0.0 0.00 0.00 0.00 87 1014.3
20260904104052 75 0 0.0 0.0 0.00 0.00 0.00 87 1014.3
20260904103554 75 0 0.0 0.0 0.00 0.00 0.00 87 1014.3
20260904103104 75 0 0.0 0.0 0.00 0.00 0.00 86 1014.3
20260904102556 76 0 0.0 0.0 0.00 0.00 0.00 86 1014.3
20260904102056 76 0 0.0 0.0 0.00 0.00 0.00 86 1014.2
20260904101557 76 0 0.0 0.0 0.00 0.00 0.00 86 1014.1
20260904101053 76 0 0.0 0.0 0.00 0.00 0.00 86 1014.1
20260904100555 76 0 0.0 0.0 0.00 0.00 0.00 86 1014.1
20260904100059 76 0 0.0 0.0 0.00 0.00 0.00 86 1014.2
20260904095554 76 0 0.0 0.0 0.00 0.00 0.00 85 1014.1
20260904095055 75 0 0.0 0.0 0.00 0.00 0.00 86 1014.1
20260904094610 75 0 0.0 1.7 0.00 0.00 0.00 86 1014.1
20260904094053 75 0 0.0 1.7 0.00 0.00 0.00 85 1014.1
20260904093559 76 0 0.9 1.7 0.00 0.00 0.00 85 1014.1
20260904093114 76 167 0.9 2.6 0.00 0.00 0.00 85 1014.1
20260904092556 76 176 0.9 3.5 0.00 0.00 0.00 85 1014.0
20260904092056 76 172 2.6 3.5 0.00 0.00 0.00 85 1013.9
20260904091557 76 221 3.5 3.5 0.00 0.00 0.00 85 1013.9
20260904091052 76 238 2.6 3.5 0.00 0.00 0.00 85 1013.8
20260904090555 76 241 2.6 3.5 0.00 0.00 0.00 85 1013.7
20260904085555 76 244 0.0 2.6 0.00 0.00 0.00 84 1013.7
20260904085052 76 0 0.0 0.9 0.00 0.00 0.00 84 1013.6
20260904084601 76 0 0.0 0.9 0.00 0.00 0.00 84 1013.7
20260904084052 76 0 0.0 0.9 0.00 0.00 0.00 83 1013.6
20260904083557 76 0 0.0 0.9 0.00 0.00 0.00 83 1013.7
20260904083059 76 0 0.9 1.7 0.00 0.00 0.00 83 1013.6
20260904082556 76 217 0.9 1.7 0.00 0.00 0.00 84 1013.5
20260904082055 76 214 1.7 2.6 0.00 0.00 0.00 85 1013.4
20260904081602 76 195 0.9 2.6 0.00 0.00 0.00 84 1013.3
20260904081054 76 179 2.6 2.6 0.00 0.00 0.00 84 1013.3
20260904080552 75 0 0.0 0.0 0.00 0.00 0.00 84 1013.3
20260904080101 75 0 0.0 0.0 0.00 0.00 0.00 85 1013.1
20260904075555 75 0 0.0 0.0 0.00 0.00 0.00 84 1013.2
20260904075055 76 0 0.0 0.0 0.00 0.00 0.00 83 1013.1
20260904074605 76 0 0.0 0.9 0.00 0.00 0.00 83 1013.2
20260904074058 76 0 0.0 1.7 0.00 0.00 0.00 83 1013.0
20260904073556 76 108 0.9 1.7 0.00 0.00 0.00 84 1013.0
20260904073107 76 107 0.9 1.7 0.00 0.00 0.00 84 1013.1
20260904072555 76 100 0.9 1.7 0.00 0.00 0.00 83 1013.0
20260904072055 76 93 1.7 1.7 0.00 0.00 0.00 83 1013.2
20260904071600 76 95 1.7 1.7 0.00 0.00 0.00 83 1013.2
20260904071052 77 96 0.9 1.7 0.00 0.00 0.00 82 1013.2
20260904070554 77 0 0.0 0.0 0.00 0.00 0.00 82 1013.2
20260904070104 77 0 0.0 0.0 0.00 0.00 0.00 82 1013.2
20260904065553 77 0 0.0 0.0 0.00 0.00 0.00 81 1013.2
20260904065053 77 0 0.0 0.0 0.00 0.00 0.00 81 1013.2
20260904064558 77 0 0.0 0.0 0.00 0.00 0.00 81 1013.3
20260904064055 77 0 0.0 0.0 0.00 0.00 0.00 81 1013.3
20260904063556 77 0 0.0 0.0 0.00 0.00 0.00 82 1013.4
20260904063117 77 0 0.0 0.0 0.00 0.00 0.00 82 1013.3
20260904062552 77 0 0.0 0.0 0.00 0.00 0.00 82 1013.4
20260904062052 77 0 0.0 0.0 0.00 0.00 0.00 82 1013.4
20260904061605 77 0 0.0 0.0 0.00 0.00 0.00 81 1013.4
20260904061052 78 0 0.0 0.0 0.00 0.00 0.00 80 1013.3
20260904060555 78 0 0.0 0.0 0.00 0.00 0.00 80 1013.2
20260904055555 79 0 0.0 0.0 0.00 0.00 0.00 78 1013.3
20260904055055 79 0 0.0 0.0 0.00 0.00 0.00 76 1013.3
20260904054602 79 0 0.0 0.0 0.00 0.00 0.00 76 1013.3
20260904054054 79 0 0.0 0.0 0.00 0.00 0.00 76 1013.2
20260904053555 79 0 0.0 0.0 0.00 0.00 0.00 77 1013.3
20260904053139 79 0 0.0 0.0 0.00 0.00 0.00 77 1013.2
20260904052556 79 0 0.0 2.6 0.00 0.00 0.00 77 1013.3
20260904052100 79 0 0.0 2.6 0.00 0.00 0.00 77 1013.3
20260904051605 79 75 1.7 2.6 0.00 0.00 0.00 77 1013.4
20260904051055 79 82 0.0 1.7 0.00 0.00 0.00 78 1013.3
20260904050555 79 0 0.0 0.0 0.00 0.00 0.00 79 1013.2
20260904050108 79 0 0.0 0.0 0.00 0.00 0.00 78 1013.1
20260904045557 79 0 0.0 0.0 0.00 0.00 0.00 79 1013.2
20260904045055 79 0 0.0 0.0 0.00 0.00 0.00 79 1013.2
20260904044559 79 0 0.0 0.0 0.00 0.00 0.00 78 1013.1
20260904044053 79 0 0.0 0.0 0.00 0.00 0.00 77 1013.3
20260904043552 79 0 0.0 0.0 0.00 0.00 0.00 77 1013.3
20260904043103 79 0 0.0 0.0 0.00 0.00 0.00 77 1013.4
20260904042554 79 0 0.0 0.0 0.00 0.00 0.00 78 1013.5
20260904042056 79 0 0.0 0.0 0.00 0.00 0.00 78 1013.5
20260904041606 79 0 0.0 0.0 0.00 0.00 0.00 78 1013.5
20260904041058 79 0 0.0 0.0 0.00 0.00 0.00 78 1013.5
20260904040552 80 0 0.0 0.0 0.00 0.00 0.00 77 1013.7
20260904040104 79 0 0.0 0.0 0.00 0.00 0.00 77 1013.5
20260904035553 79 0 0.0 0.0 0.00 0.00 0.00 77 1013.6
20260904035052 79 0 0.0 0.0 0.00 0.00 0.00 77 1013.5
20260904034604 79 0 0.0 0.0 0.00 0.00 0.00 77 1013.6
20260904034055 79 0 0.0 0.9 0.00 0.00 0.00 77 1013.5
20260904033554 79 0 0.0 1.7 0.00 0.00 0.00 77 1013.7
20260904033112 79 0 0.9 1.7 0.00 0.00 0.00 77 1013.7
20260904032554 79 103 0.9 1.7 0.00 0.00 0.00 77 1013.9
20260904032052 79 122 0.9 1.7 0.00 0.00 0.00 78 1013.8
20260904031604 79 143 0.9 2.6 0.00 0.00 0.00 78 1013.7
20260904031056 79 144 1.7 3.5 0.00 0.00 0.00 77 1013.7
20260904030552 80 127 1.7 3.5 0.00 0.00 0.00 76 1013.8
20260904025557 80 92 2.6 3.5 0.00 0.00 0.00 77 1013.8
20260904025056 79 98 2.6 3.5 0.00 0.00 0.00 77 1013.7
20260904024605 79 101 2.6 3.5 0.00 0.00 0.00 78 1013.6
20260904024052 79 117 3.5 3.5 0.00 0.00 0.00 79 1013.6
20260904023552 79 98 2.6 3.5 0.00 0.00 0.00 78 1013.4
20260904023059 79 82 2.6 3.5 0.00 0.00 0.00 77 1013.4
20260904022553 80 97 1.7 2.6 0.00 0.00 0.00 75 1013.4
20260904022054 81 0 0.0 0.0 0.00 0.00 0.00 74 1013.3
20260904021606 81 0 0.0 0.0 0.00 0.00 0.00 73 1013.2
20260904021051 81 0 0.0 0.0 0.00 0.00 0.00 74 1013.1
20260904020556 81 0 0.0 0.9 0.00 0.00 0.00 73 1013.1
20260904020123 81 0 0.0 0.9 0.00 0.00 0.00 74 1013.1
20260904015557 82 0 0.0 0.0 0.00 0.00 0.00 73 1013.1
20260904015056 82 0 0.0 0.0 0.00 0.00 0.00 73 1013.2
20260904014649 82 0 0.0 0.0 0.00 0.00 0.00 73 1013.1
20260904014055 82 0 0.0 0.0 0.00 0.00 0.00 73 1013.1
20260904013554 82 0 0.0 0.0 0.00 0.00 0.00 73 1013.1
20260904013109 82 0 0.0 0.0 0.00 0.00 0.00 72 1013.0
20260904012555 82 0 0.0 0.0 0.00 0.00 0.00 72 1013.0
20260904012052 82 0 0.0 0.0 0.00 0.00 0.00 72 1013.0
20260904011608 82 0 0.0 0.0 0.00 0.00 0.00 72 1013.0
20260904011055 82 0 0.0 0.0 0.00 0.00 0.00 72 1012.9
20260904010552 82 0 0.0 0.0 0.00 0.00 0.00 73 1012.9
20260904010105 81 0 0.0 0.0 0.00 0.00 0.00 72 1012.9
20260904005552 81 0 0.0 0.0 0.00 0.00 0.00 73 1012.9
20260904005055 81 0 0.0 0.0 0.00 0.00 0.00 73 1012.9
20260904004603 81 0 0.0 0.9 0.00 0.00 0.00 73 1013.0
20260904004053 81 0 0.0 1.7 0.00 0.00 0.00 73 1013.0
20260904003553 81 0 0.9 2.6 0.00 0.00 0.00 73 1012.9
20260904003112 82 139 1.7 2.6 0.00 0.00 0.00 73 1012.9
20260904002552 82 161 1.7 2.6 0.00 0.00 0.00 72 1012.8
20260904002055 82 162 1.7 4.3 0.00 0.00 0.00 71 1012.7
20260904001559 82 160 1.7 4.3 0.00 0.00 0.00 70 1012.8
20260904001053 83 196 3.5 4.3 0.00 0.00 0.00 69 1012.8
20260904000554 83 215 2.6 4.3 0.00 0.00 0.00 68 1012.9
20260903235556 83 214 2.6 6.1 0.00 0.00 0.00 67 1012.8
20260903235052 83 252 4.3 7.8 0.00 0.00 0.00 66 1012.8
20260903234614 83 235 6.1 9.6 0.00 0.00 0.00 66 1012.9
20260903234056 84 245 7.0 9.6 0.00 0.00 0.00 65 1012.7
20260903233553 84 264 6.1 9.6 0.00 0.00 0.00 63 1012.7
20260903233102 85 236 5.2 9.6 0.00 0.00 0.00 61 1012.9
20260903232555 85 267 7.0 9.6 0.00 0.00 0.00 60 1012.8
20260903232052 85 281 4.3 13.0 0.00 0.00 0.00 59 1012.7
20260903231604 85 259 7.0 17.4 0.00 0.00 0.00 60 1012.7
20260903231056 85 252 11.3 17.4 0.00 0.00 0.00 61 1012.9
20260903230556 86 266 11.3 14.8 0.00 0.00 0.00 59 1013.1
20260903230109 87 263 8.7 13.9 0.00 0.00 0.00 57 1012.8
20260903225553 87 259 8.7 12.2 0.00 0.00 0.00 58 1012.8
20260903225052 86 260 7.8 13.9 0.00 0.00 0.00 60 1012.9
20260903224619 86 248 10.4 13.9 0.00 0.00 0.00 59 1012.7
20260903224052 87 272 7.8 19.1 0.00 0.00 0.00 58 1012.8
20260903223553 86 240 11.3 20.9 0.00 0.00 0.00 60 1013.0
20260903223058 87 245 14.8 20.9 0.00 0.00 0.00 57 1013.0
20260903222552 89 240 11.3 21.7 0.00 0.00 0.00 57 1012.7
20260903222055 89 224 16.5 21.7 0.00 0.00 0.00 55 1012.8
20260903221603 93 213 7.0 13.0 0.00 0.00 0.00 50 1012.8
20260903221054 94 116 0.9 14.8 0.00 0.00 0.00 48 1012.4
20260903220553 94 101 2.6 14.8 0.00 0.00 0.00 47 1012.3
20260903220106 97 70 2.6 7.8 0.00 0.00 0.00 44 1012.1
20260903215554 98 68 1.7 4.3 0.00 0.00 0.00 41 1011.8
20260903215054 98 77 2.6 4.3 0.00 0.00 0.00 39 1011.9
20260903214559 100 64 1.7 4.3 0.00 0.00 0.00 39 1011.8
20260903214052 99 316 0.9 4.3 0.00 0.00 0.00 40 1012.0
20260903213553 99 13 2.6 4.3 0.00 0.00 0.00 39 1011.8
20260903213101 100 0 1.7 4.3 0.00 0.00 0.00 38 1011.8
20260903212552 99 326 1.7 7.0 0.00 0.00 0.00 39 1011.9
20260903212054 99 0 2.6 7.0 0.00 0.00 0.00 40 1012.0
20260903211600 100 281 4.3 7.0 0.00 0.00 0.00 39 1012.0
20260903211054 101 342 0.9 4.3 0.00 0.00 0.00 38 1012.1
20260903210554 100 0 1.7 4.3 0.00 0.00 0.00 38 1012.1
20260903210104 100 80 2.6 6.1 0.00 0.00 0.00 37 1012.2
20260903205553 101 179 1.7 6.1 0.00 0.00 0.00 38 1012.2
20260903205052 99 184 0.9 4.3 0.00 0.00 0.00 39 1012.3
20260903204605 100 160 1.7 6.1 0.00 0.00 0.00 38 1012.3
20260903204052 99 196 2.6 6.1 0.00 0.00 0.00 38 1012.5
20260903203556 99 153 2.6 7.0 0.00 0.00 0.00 40 1012.4
20260903203102 98 159 3.5 7.0 0.00 0.00 0.00 40 1012.5
20260903202554 99 134 4.3 7.0 0.00 0.00 0.00 39 1012.6
20260903202055 99 103 2.6 8.7 0.00 0.00 0.00 40 1012.7
20260903201603 99 80 2.6 10.4 0.00 0.00 0.00 40 1012.8
20260903201054 99 258 5.2 10.4 0.00 0.00 0.00 39 1012.8
20260903200553 99 276 7.8 10.4 0.00 0.00 0.00 40 1012.8
20260903200100 99 269 5.2 11.3 0.00 0.00 0.00 39 1012.9
20260903195555 99 226 5.2 11.3 0.00 0.00 0.00 39 1012.9
20260903195052 100 233 2.6 8.7 0.00 0.00 0.00 39 1013.1
20260903194604 99 233 1.7 7.0 0.00 0.00 0.00 40 1013.3
20260903194141 98 157 2.6 7.0 0.00 0.00 0.00 40 1013.4
20260903193555 99 111 0.9 7.0 0.00 0.00 0.00 40 1013.3
20260903193118 99 150 4.3 7.8 0.00 0.00 0.00 40 1013.6
20260903192555 99 79 0.9 7.8 0.00 0.00 0.00 41 1013.6
20260903192052 99 156 4.3 7.8 0.00 0.00 0.00 40 1013.7
20260903191606 98 0 1.7 4.3 0.00 0.00 0.00 41 1013.6
20260903191052 98 143 2.6 4.3 0.00 0.00 0.00 41 1013.8
20260903190554 99 64 0.9 4.3 0.00 0.00 0.00 40 1013.8
20260903190104 99 81 1.7 4.3 0.00 0.00 0.00 40 1013.9
20260903185552 99 22 1.7 5.2 0.00 0.00 0.00 39 1014.0
20260903185052 99 126 2.6 6.1 0.00 0.00 0.00 39 1014.1
20260903184600 99 162 1.7 6.1 0.00 0.00 0.00 42 1014.1
20260903184052 98 154 3.5 5.2 0.00 0.00 0.00 43 1014.1
20260903183558 98 67 1.7 5.2 0.00 0.00 0.00 43 1014.2
20260903183104 98 101 1.7 7.0 0.00 0.00 0.00 44 1014.2
20260903182558 97 122 3.5 7.0 0.00 0.00 0.00 44 1014.3